Regional Weather Roundup
Issued by NWS

Home | Current Version | Previous Version | Text Only | Print | Product List | Glossary On
Versions: 1 2 3 4 5 6 7 8 9 10 11 12 13 14 15 16 17 18 19 20 21 22 23 24 25 26 27 28 29 30 31 32 33 34 35 36 37 38 39 40 41 42 43 44 45 46 47 48 49 50
000
ASUS45 KPSR 300810
RWRAZ

ARIZONA HOURLY REGIONAL WEATHER ROUNDUP
NATIONAL WEATHER SERVICE PHOENIX AZ
100 AM MST THU JUL 30 2015

NOTE: FAIR INDICATES FEW OR NO CLOUDS BELOW 12,000 FEET WITH NO
SIGNIFICANT WEATHER AND/OR OBSTRUCTIONS TO VISIBILITY.

AZZ001>003-036-300900-
NORTHWEST ARIZONA

CITY           SKY/WX    TMP DP  RH WIND       PRES   REMARKS
BULLHEAD CITY  CLOUDY    95  57  28 S13       29.89S
KINGMAN        CLOUDY    83  57  41 S8        30.11R
$$

AZZ004>008-015-016-018-300900-
NORTH CENTRAL ARIZONA

CITY           SKY/WX    TMP DP  RH WIND       PRES   REMARKS
GRAND CANYON   PTCLDY    61  50  67 NE3       30.38S
WILLIAMS       MOCLDY    66  52  59 SE5       30.45S
PRESCOTT       CLOUDY    70  57  63 SW3       30.26F
FLAGSTAFF      MOCLDY    58  51  78 CALM      30.41S
PAYSON         CLOUDY    66  63  88 CALM      30.27R
PAGE           MOCLDY    78  55  44 E6        30.20R
$$

AZZ009>014-017-300900-
NORTHEAST ARIZONA

CITY           SKY/WX    TMP DP  RH WIND       PRES   REMARKS
WINSLOW        CLOUDY    69  59  70 N5        30.27
SAINT JOHNS    CLOUDY    64  62  93 NE6       30.32S
SHOW LOW       CLOUDY    57  55  94 S5        30.36S
$$

AZZ023-300900-
GREATER PHOENIX AREA

CITY           SKY/WX    TMP DP  RH WIND       PRES   REMARKS
PHOENIX        CLOUDY    87  61  41 SE7       29.96F
LUKE AFB       CLOUDY    88  63  42 S8        29.95F
DEER VALLEY    CLOUDY    85  61  44 S9        29.97F
SCOTTSDALE     CLOUDY    85  62  46 SE7       29.99F
MESA-GATEWAY   CLOUDY    82  61  47 CALM      30.01F
$$

AZZ027-028-300900-
SOUTHWEST MARICOPA COUNTY AND PINAL COUNTY

CITY           SKY/WX    TMP DP  RH WIND       PRES   REMARKS
CASA GRANDE    CLOUDY    84  63  48 E10       29.98F
GILA BEND      FAIR      85  65  49 E2        29.93F
$$

AZZ503-504-507>509-300900-
SOUTHEAST ARIZONA

CITY           SKY/WX    TMP DP  RH WIND       PRES   REMARKS
TUCSON         MOCLDY    77  64  64 SE10      30.10S
DAVIS-MONTHAN  MOCLDY    75  65  72 SE10      30.08F
NOGALES        PTCLDY    69  65  86 CALM      30.17F
SIERRA VISTA   PTCLDY    67  62  85 W1        30.25F
DOUGLAS          N/A    N/A N/A N/A MISG      30.22F
SAFFORD        CLOUDY    73  65  75 SE8       30.15F
$$

AZZ020-021-025-026-031-300900-
SOUTHWEST ARIZONA

CITY           SKY/WX    TMP DP  RH WIND       PRES   REMARKS
YUMA           MOCLDY    91  65  41 CALM      29.89S
$$

CAZ031-033-041-043-047-048-061-300900-
SOUTHERN CALIFORNIA

CITY           SKY/WX    TMP DP  RH WIND       PRES   REMARKS
DOWNTOWN L.A.  PTCLDY    69  62  78 CALM      29.98S
L.A. AIRPORT   PTCLDY    68  63  84 VRB5      29.99S
SAN DIEGO      MOCLDY    71  63  75 NW5       29.99S
BURBANK        PTCLDY    72  62  71 SE3       29.99S
ONTARIO        PTCLDY    71  62  73 W3        29.99F
RIVERSIDE      CLEAR     72  63  73 W3        30.00S
PALM SPRINGS   MOCLDY    93  65  39 NW7       29.91S
EL CENTRO NAS  CLEAR     86  65  49 NE5       29.87S
IMPERIAL       CLEAR     91  66  43 SE3       29.86R
BLYTHE         CLOUDY    95  68  41 S9        29.89S
NEEDLES        CLOUDY    96  57  27 SW12      29.90S
$$

NVZ020-UTZ003-300900-
SOUTHERN NEVADA-UTAH

CITY           SKY/WX    TMP DP  RH WIND       PRES   REMARKS
LAS VEGAS      CLOUDY    91  51  25 S8        29.94F
SALT LAKE CITY PTCLDY    66  36  32 S8        30.24S
$$

NMZ009-TXZ055-300900-
NEW MEXICO-WEST TEXAS

CITY           SKY/WX    TMP DP  RH WIND       PRES   REMARKS
ALBUQUERQUE    CLOUDY    67  57  70 E26G33    30.34F
EL PASO        MOCLDY    74  62  66 N17       30.17S THUNDER
$$


........................KEY........................
SKY/WX - SKY CONDITION/WEATHER
TMP    - TEMPERATURE IN FAHRENHEIT
DP     - DEW POINT IN FAHRENHEIT
RH     - RELATIVE HUMIDITY IN PERCENT
WIND   - DIRECTION AND SPEED IN MILES PER HOUR (MPH)
VRB    - VARIABLE WIND DIRECTION
PRES   - MEAN SEA LEVEL PRESSURE IN INCHES OF MERCURY
         F - FALLING PRESSURE   R - RISING PRESSURE
         S - STEADY PRESSURE
VSB    - VISIBILITY IN MILES
HX     - HEAT INDEX IN FAHRENHEIT
WCI    - WIND CHILL INDEX IN FAHRENHEIT
TC     - TEMPERATURE IN CELSIUS WHICH IS ALSO KNOWN AS
         TEMPERATURE IN CENTIGRADE
AFB    - AIR FORCE BASE
         LUKE AFB IS LUKE AIR FORCE BASE
         DAVIS-MONTHAN IS DAVIS-MONTHAN AIR FORCE BASE
NAS    - NAVAL AIR STATION
         EL CENTRO NAS IS EL CENTRO NAVAL AIR STATION
N/A    - NOT AVAILABLE




USA.gov is the U.S. government's official web portal to all federal, state and local government web resources and services.